N51CP KBFF-KDEN

Flight info

Callsign N51CP
Flight time 0h 41m
Altitude 22000
Route BFF LANDR3
Aircraft TBM9/L-SDFGRWY/S

Departure

Time 2026-05-04 17:12
Airport Western Neb. Rgnl/William B. Heilig Airport (KBFF)

Arrival

Time 2026-05-04 17:54
Airport Denver International Airport (KDEN)
Time Latitude Longitude Altitude Speed Heading
2026-05-04 17:04 41.87088 -103.59424 3957 ft 0 kts 298°
2026-05-04 17:09 41.87111 -103.59376 3957 ft 12 kts 70°
2026-05-04 17:10 41.86966 -103.59116 3959 ft 25 kts 136°
2026-05-04 17:10 41.86563 -103.58589 3963 ft 22 kts 137°
2026-05-04 17:11 41.86538 -103.58482 3962 ft 12 kts 49°
2026-05-04 17:11 41.86604 -103.58398 3963 ft 14 kts
2026-05-04 17:11 41.87043 -103.58941 3963 ft 86 kts 315°
2026-05-04 17:12 41.87483 -103.59717 3986 ft 124 kts 307°
2026-05-04 17:12 41.88414 -103.61690 4744 ft 131 kts 285°
2026-05-04 17:13 41.86379 -103.62631 5747 ft 128 kts 156°
2026-05-04 17:14 41.83661 -103.61546 6688 ft 154 kts 164°
2026-05-04 17:14 41.82544 -103.61550 6888 ft 169 kts 180°
2026-05-04 17:14 41.79922 -103.61683 7014 ft 210 kts 181°
2026-05-04 17:15 41.78391 -103.61782 7006 ft 229 kts 182°
2026-05-04 17:15 41.75209 -103.61742 7632 ft 227 kts 181°
2026-05-04 17:16 41.72038 -103.61845 8186 ft 229 kts 182°
2026-05-04 17:16 41.67312 -103.61930 9070 ft 226 kts 182°
2026-05-04 17:17 41.65735 -103.61965 9347 ft 226 kts 184°
2026-05-04 17:17 41.61028 -103.62055 10114 ft 227 kts 185°
2026-05-04 17:18 41.59440 -103.62088 10330 ft 227 kts 184°
2026-05-04 17:18 41.56261 -103.62149 10731 ft 230 kts 183°
2026-05-04 17:19 41.53040 -103.62214 11188 ft 231 kts 185°
2026-05-04 17:19 41.49821 -103.62272 11671 ft 232 kts 186°
2026-05-04 17:20 41.46577 -103.62336 12122 ft 233 kts 185°
2026-05-04 17:20 41.43330 -103.62403 12605 ft 234 kts 185°
2026-05-04 17:20 41.41692 -103.62436 12838 ft 235 kts 185°
2026-05-04 17:21 41.38414 -103.62494 13287 ft 236 kts 185°
2026-05-04 17:21 41.35090 -103.62560 13722 ft 239 kts 185°
2026-05-04 17:22 41.33439 -103.62592 13928 ft 240 kts 185°
2026-05-04 17:22 41.31761 -103.62624 14148 ft 241 kts 185°
2026-05-04 17:23 41.26711 -103.62722 14759 ft 244 kts 186°
2026-05-04 17:23 41.25007 -103.62753 14958 ft 245 kts 185°
2026-05-04 17:23 41.21583 -103.62820 15350 ft 246 kts 186°
2026-05-04 17:24 41.19868 -103.62853 15548 ft 247 kts 186°
2026-05-04 17:24 41.14682 -103.62953 16083 ft 251 kts 186°
2026-05-04 17:25 41.12955 -103.62985 16278 ft 251 kts 186°
2026-05-04 17:25 41.09429 -103.63052 16645 ft 253 kts 186°
2026-05-04 17:26 41.05901 -103.63121 16989 ft 255 kts 186°
2026-05-04 17:26 41.00556 -103.63222 17509 ft 257 kts 186°
2026-05-04 17:27 40.96985 -103.63290 17845 ft 259 kts 186°
2026-05-04 17:27 40.93358 -103.63359 18160 ft 260 kts 186°
2026-05-04 17:28 40.89740 -103.63428 18448 ft 261 kts 186°
2026-05-04 17:29 40.84261 -103.63608 18868 ft 261 kts 192°
2026-05-04 17:29 40.78852 -103.64401 19314 ft 263 kts 192°
2026-05-04 17:30 40.73367 -103.65184 19784 ft 262 kts 192°
2026-05-04 17:31 40.69755 -103.65701 20074 ft 264 kts 192°
2026-05-04 17:31 40.64259 -103.66486 20515 ft 265 kts 192°
2026-05-04 17:32 40.60707 -103.67435 20800 ft 258 kts 210°
2026-05-04 17:33 40.56686 -103.71807 21230 ft 250 kts 231°
2026-05-04 17:33 40.55476 -103.73447 21380 ft 250 kts 231°
2026-05-04 17:34 40.51854 -103.78402 21786 ft 252 kts 231°
2026-05-04 17:34 40.50625 -103.80083 21802 ft 257 kts 231°
2026-05-04 17:35 40.46835 -103.85256 21826 ft 266 kts 231°
2026-05-04 17:35 40.44177 -103.88891 21246 ft 287 kts 230°
2026-05-04 17:35 40.42771 -103.90806 20947 ft 294 kts 230°
2026-05-04 17:36 40.41350 -103.92738 20654 ft 298 kts 230°
2026-05-04 17:36 40.39895 -103.94714 20364 ft 302 kts 230°
2026-05-04 17:36 40.38431 -103.96705 20058 ft 304 kts 229°
2026-05-04 17:36 40.36951 -103.98711 19760 ft 306 kts 229°
2026-05-04 17:37 40.35489 -104.00694 19466 ft 306 kts 229°
2026-05-04 17:37 40.33999 -104.02716 19169 ft 307 kts 229°
2026-05-04 17:37 40.32511 -104.04734 18875 ft 307 kts 229°
2026-05-04 17:37 40.31039 -104.06727 18499 ft 307 kts 229°
2026-05-04 17:38 40.29554 -104.08732 18228 ft 307 kts 229°
2026-05-04 17:38 40.28058 -104.10756 17929 ft 306 kts 229°
2026-05-04 17:38 40.26575 -104.12765 17606 ft 306 kts 229°
2026-05-04 17:38 40.25106 -104.14747 17280 ft 306 kts 228°
2026-05-04 17:39 40.22144 -104.18743 16642 ft 305 kts 229°
2026-05-04 17:39 40.20665 -104.20735 16336 ft 304 kts 229°
2026-05-04 17:39 40.19191 -104.22718 16031 ft 304 kts 228°
2026-05-04 17:40 40.17734 -104.24678 15721 ft 303 kts 229°
2026-05-04 17:40 40.16260 -104.26665 15420 ft 303 kts 228°
2026-05-04 17:40 40.14782 -104.28652 15120 ft 303 kts 229°
2026-05-04 17:40 40.13312 -104.30625 14955 ft 299 kts 228°
2026-05-04 17:41 40.11879 -104.32539 14830 ft 296 kts 228°
2026-05-04 17:41 40.10449 -104.34455 14700 ft 293 kts 229°
2026-05-04 17:41 40.09030 -104.36361 14577 ft 291 kts 229°
2026-05-04 17:41 40.07630 -104.38240 14491 ft 290 kts 229°
2026-05-04 17:42 40.06217 -104.40130 14388 ft 289 kts 229°
2026-05-04 17:42 40.04806 -104.42020 14279 ft 289 kts 229°
2026-05-04 17:42 40.03409 -104.43898 14173 ft 289 kts 229°
2026-05-04 17:42 40.02017 -104.45744 14071 ft 288 kts 229°
2026-05-04 17:43 40.00612 -104.47618 13966 ft 289 kts 229°
2026-05-04 17:43 39.99681 -104.48864 13900 ft 288 kts 229°
2026-05-04 17:43 39.98280 -104.50737 13790 ft 288 kts 229°
2026-05-04 17:43 39.96876 -104.52612 13684 ft 288 kts 228°
2026-05-04 17:44 39.95348 -104.54307 13551 ft 292 kts 213°
2026-05-04 17:44 39.93398 -104.55123 13397 ft 298 kts 189°
2026-05-04 17:44 39.91327 -104.55321 13270 ft 298 kts 184°
2026-05-04 17:44 39.89272 -104.55397 13149 ft 298 kts 183°
2026-05-04 17:45 39.87187 -104.55463 13044 ft 297 kts 183°
2026-05-04 17:45 39.85124 -104.55524 12913 ft 296 kts 184°
2026-05-04 17:45 39.83083 -104.55564 12785 ft 296 kts 183°
2026-05-04 17:45 39.81021 -104.55602 12653 ft 295 kts 184°
2026-05-04 17:46 39.78968 -104.55642 12528 ft 295 kts 184°
2026-05-04 17:46 39.76910 -104.55677 12398 ft 295 kts 183°
2026-05-04 17:46 39.74855 -104.55723 12178 ft 297 kts 183°
2026-05-04 17:46 39.72789 -104.55772 11815 ft 304 kts 183°
2026-05-04 17:47 39.70656 -104.55827 11447 ft 307 kts 183°
2026-05-04 17:47 39.68509 -104.55888 11072 ft 308 kts 184°
2026-05-04 17:47 39.66358 -104.55932 10694 ft 309 kts 184°
2026-05-04 17:47 39.64205 -104.55979 10320 ft 309 kts 184°
2026-05-04 17:48 39.62097 -104.56188 9967 ft 306 kts 196°
2026-05-04 17:48 39.60247 -104.57421 9609 ft 290 kts 224°
2026-05-04 17:48 39.59166 -104.59426 9256 ft 260 kts 252°
2026-05-04 17:48 39.58807 -104.61637 8901 ft 243 kts 266°
2026-05-04 17:49 39.58864 -104.63754 8613 ft 230 kts 289°
2026-05-04 17:49 39.59697 -104.65355 8399 ft 209 kts 322°
2026-05-04 17:49 39.61012 -104.65958 8177 ft 201 kts 359°
2026-05-04 17:49 39.62309 -104.65380 7995 ft 200 kts 37°
2026-05-04 17:50 39.63262 -104.64150 7960 ft 185 kts 29°
2026-05-04 17:50 39.64425 -104.63835 7969 ft 172 kts 346°
2026-05-04 17:50 39.65615 -104.64272 7988 ft 187 kts 351°
2026-05-04 17:50 39.66965 -104.64343 8001 ft 201 kts 358°
2026-05-04 17:51 39.68401 -104.64341 8001 ft 211 kts 357°
2026-05-04 17:51 39.69904 -104.64337 7929 ft 221 kts 358°
2026-05-04 17:51 39.71503 -104.64302 7670 ft 236 kts 360°
2026-05-04 17:51 39.73191 -104.64273 7363 ft 244 kts 358°
2026-05-04 17:52 39.74865 -104.64245 7066 ft 243 kts 360°
2026-05-04 17:52 39.76523 -104.64405 7085 ft 229 kts 350°
2026-05-04 17:52 39.78053 -104.64801 6860 ft 220 kts 340°
2026-05-04 17:52 39.79399 -104.65524 6469 ft 198 kts 339°
2026-05-04 17:53 39.80695 -104.65953 6119 ft 198 kts 351°
2026-05-04 17:53 39.81927 -104.66019 5798 ft 144 kts 353°
2026-05-04 17:53 39.82834 -104.66051 5491 ft 119 kts 354°
2026-05-04 17:53 39.83552 -104.66060 5427 ft 77 kts 356°
2026-05-04 17:54 39.83898 -104.66054 5422 ft 43 kts 358°
2026-05-04 17:54 39.84120 -104.66055 5409 ft 21 kts 340°
2026-05-04 17:54 39.84058 -104.66157 5412 ft 19 kts 212°
2026-05-04 17:54 39.84019 -104.66308 5410 ft 18 kts 263°
2026-05-04 17:55 39.83909 -104.66374 5401 ft 20 kts 182°
2026-05-04 17:55 39.83862 -104.66475 5401 ft 15 kts 274°
2026-05-04 17:55 39.83872 -104.66524 5408 ft 0 kts